Location: Hiekkapohja
(62.3333°N, 25.7833°E)
Time: 01:14:36
(UTC+00:00)

Daily predictions for brighter satellites

Satellite Brightness Start Highest point End
(mag) Time Altitude Azimuth Time Altitude Azimuth Time Altitude Azimuth
Cosmos 1536 Rocket 4.2 00:03:21 10° NNW 00:07:26 40° W 00:11:19 11° SSW
Cosmos 2219 Rocket 3.9 00:04:16 10° WNW 00:07:36 16° W 00:10:56 10° SW
Cosmos 1437 4.1 00:07:02 10° NW 00:09:25 22° W 00:11:26 12° SW
Cosmos 1634 Rocket 4.1 00:06:03 10° S 00:12:19 79° E 00:18:33 10° NNE
Cosmos 1733 4.5 00:08:53 10° SSE 00:12:25 36° E 00:16:00 10° NNE
Cosmos 2082 Rocket 3.9 00:07:44 10° WNW 00:12:58 36° N 00:18:11 10° ENE
COBE Rocket 3.8 00:09:35 10° SSE 00:14:16 84° WSW 00:18:58 10° NNW
Cosmos 2112 Rocket 4.0 00:10:42 10° NW 00:15:58 72° WSW 00:21:10 10° SSE
Lacrosse 4 Rocket 1.4 00:13:15 10° SW 00:17:31 89° SE 00:21:43 10° NE
Meteor 1-24 Rocket 3.7 00:13:22 10° NNW 00:19:00 83° WSW 00:24:26 10° SSE
SL-16 R/B 2.4 00:14:57 10° NW 00:20:28 51° WSW 00:25:58 10° SSE
Cosmos 1354 Rocket 4.2 00:16:43 10° SW 00:22:04 79° NW 00:27:28 10° NE
SL-4 R/B 3.6 00:22:18 11° SSW 00:22:19 11° SSW 00:23:10 10° S
Meteor 2-5 Rocket 3.8 00:16:42 10° NNW 00:22:24 67° WSW 00:27:56 10° S
Cosmos 968 Rocket 3.9 00:19:48 10° SW 00:24:51 58° NW 00:29:57 10° NE
ARIANE 5 R/B 4.2 00:25:01 10° NNE 00:29:36 30° E 00:34:11 10° SSE
NPP 3.9 00:25:22 10° NNE 00:30:47 72° ESE 00:36:11 10° SSW
ERS-2 4.1 00:28:24 10° ESE 00:31:42 33° ENE 00:35:02 10° N
CZ-2D R/B 2.3 00:26:29 10° NNE 00:32:00 81° ESE 00:37:30 10° SSW
Cosmos 1680 Rocket 3.7 00:28:36 10° NW 00:33:43 53° WSW 00:38:47 10° S
SL-16 R/B 3.1 00:29:19 10° SSW 00:35:13 41° W 00:41:08 10° NNW
GEOS 3 Rocket 4.0 00:31:38 10° ENE 00:36:58 57° SE 00:42:18 10° SW
USA 267 3.7 00:31:12 10° SE 00:37:14 39° SSW 00:43:18 10° W
CENTAUR R/B 3.1 00:31:55 10° W 00:38:49 84° N 00:46:58 10° E
AQUA 4.0 00:35:09 10° NNE 00:39:57 72° ESE 00:44:43 10° SSW
ADEOS II 2.8 00:35:21 10° NNE 00:40:31 52° E 00:45:39 10° S
H-2A R/B 3.1 00:37:13 10° SE 00:41:10 48° ENE 00:45:09 10° NNW
Helios 1B rocket 3.7 00:40:41 10° N 00:44:20 32° NW 00:47:59 10° WSW
IRS-1D 4.0 00:39:58 10° NNE 00:44:56 60° ESE 00:49:57 10° S
Okean 2 Rocket 3.9 00:42:09 10° SW 00:46:25 42° WNW 00:50:44 10° N
Meteor 1-29 4.3 00:45:23 10° N 00:48:29 31° WNW 00:51:34 10° WSW
Cosmos 2266 Rocket 4.1 00:43:33 10° NNW 00:50:00 79° W 00:56:19 10° S
Cosmos 1655 Rocket 4.1 00:44:14 10° NNW 00:50:30 66° W 00:56:41 10° S
Okean 1-7 Rocket 3.6 00:46:09 10° NNW 00:50:33 71° W 00:54:58 10° S
Meteor 1-22 Rocket 4.5 00:46:27 10° S 00:51:40 63° E 00:56:58 10° NNE
Cosmos 2297 Rocket 2.5 00:46:12 10° SSW 00:51:46 61° SE 00:57:21 10° NE
Cosmos 2219 3.4 00:46:22 10° SSW 00:51:56 67° SE 00:57:33 10° NE
NOSS 5 (C) 4.2 00:49:12 10° WSW 00:52:25 85° NNW 00:55:24 10° ENE
COSMOS 2487 4.5 00:50:14 10° W 00:53:00 22° NNW 00:55:46 10° NNE
Cosmos 1777 Rocket 4.1 00:49:30 10° SSW 00:54:49 88° SE 01:00:11 10° NE
Cosmos 2237 Rocket 3.7 00:51:18 10° WNW 00:55:01 18° W 00:58:43 10° SW
Cosmos 1766 3.3 00:51:55 10° SSW 00:55:50 88° WNW 00:59:45 10° NNE
